Watsonville, CA

8:10 AM PDT on July 24, 2017 (GMT -0700)
Watsonville Municipal

Weather History for KWVI - December, 2011

Change the Weather History Date:

Saturday, December 31, 2011

  Actual Average Record
Temperature  
Mean Temperature 54 °F 50 °F  
Max Temperature 66 °F 60 °F 66 °F (2011)
Min Temperature 42 °F 39 °F 31 °F (2012)
Degree Days  
Heating Degree Days 11    
Month to date heating degree days 482  
Since 1 July heating degree days 1134  
Cooling Degree Days 0    
Month to date cooling degree days 0  
Year to date cooling degree days 111  
Growing Degree Days 3 (Base 50)    
Moisture  
Dew Point 42 °F    
Average Humidity 65    
Maximum Humidity 93    
Minimum Humidity 37    
Precipitation  
Precipitation 0.00 in - 1.22 in (1955)
Month to date precipitation 0.05  
Year to date precipitation 22.47  
Since 1 July precipitation 4.29  
Sea Level Pressure  
Sea Level Pressure 30.17 in    
Wind  
Wind Speed 5 mph (NNE)    
Max Wind Speed 10 mph    
Max Gust Speed 13 mph    
Visibility 5 miles    
Events Fog    
T = Trace of Precipitation, MM = Missing Value Source: NWS Daily Summary

Daily Weather History Graph

Daily Weather History Graph

Search for Another Location

Airport or City:

Trip Planner

Search our weather history database for the weather conditions in past years. The results will help you decide how hot, cold, wet, or windy it might be!

Date:

Astronomy

Dec. 31, 2011 Rise Set
Actual Time 7:20 AM PST 5:00 PM PST
Civil Twilight 6:51 AM PST 5:29 PM PST
Nautical Twilight 6:18 AM PST 6:01 PM PST
Astronomical Twilight 5:47 AM PST 6:33 PM PST
Moon 11:18 AM PST (12/31) No Moon Set
Length of Visible Light 10h 38m
Length of Day
9h 40m
Waxing Crescent, 46% of the Moon is Illuminated
Dec 31
Waxing Crescent
Dec 31
First Quarter
Jan 8
Full
Jan 16
Last Quarter
Jan 22
New

Hourly Weather History & Observations

Time (PST) Temp. Windchill Dew Point Humidity Pressure Visibility Wind Dir Wind Speed Gust Speed Precip Events Conditions
12:07 AM 48.2 °F - 46.4 °F 93% 30.20 in 0.2 mi Calm Calm - N/A Fog Fog
12:30 AM 46.4 °F 45.2 °F 44.6 °F 93% 30.21 in 0.2 mi WNW 3.5 mph - N/A Fog Fog
12:53 AM 46.0 °F - 44.1 °F 93% 30.19 in 0.2 mi Calm Calm - 0.01 in Fog Fog
1:23 AM 46.4 °F - 44.6 °F 93% 30.20 in 0.2 mi Calm Calm - N/A Fog Fog
1:41 AM 46.4 °F - 44.6 °F 93% 30.19 in 0.5 mi Calm Calm - N/A Fog Fog
1:53 AM 46.0 °F - 44.1 °F 93% 30.19 in 0.8 mi Calm Calm - N/A   Overcast
2:12 AM 46.4 °F - 44.6 °F 93% 30.19 in 0.2 mi Calm Calm - N/A Fog Fog
2:27 AM 46.4 °F 45.2 °F 44.6 °F 93% 30.20 in 1.0 mi WNW 3.5 mph - N/A   Mist
2:40 AM 46.4 °F - 44.6 °F 93% 30.20 in 0.2 mi Calm Calm - N/A Fog Fog
2:53 AM 46.9 °F - 44.1 °F 90% 30.20 in 0.5 mi Calm Calm - N/A Fog Fog
3:04 AM 46.4 °F - 44.6 °F 93% 30.20 in 0.5 mi Calm Calm - N/A Fog Fog
3:22 AM 46.4 °F - 44.6 °F 93% 30.19 in 0.2 mi Calm Calm - N/A Fog Fog
4:16 AM 44.6 °F - 41.0 °F 87% 30.17 in 1.0 mi Calm Calm - N/A   Mist
4:18 AM 44.6 °F 43.1 °F 41.0 °F 87% 30.17 in 2.5 mi NNW 3.5 mph - N/A   Scattered Clouds
4:25 AM 44.6 °F 43.1 °F 41.0 °F 87% 30.17 in 9.0 mi NW 3.5 mph - N/A   Scattered Clouds
4:35 AM 44.6 °F - 41.0 °F 87% 30.17 in 1.2 mi Calm Calm - N/A   Partly Cloudy
4:37 AM 42.8 °F - 41.0 °F 93% 30.17 in 0.8 mi Calm Calm - N/A   Mist
4:53 AM 44.1 °F - 42.1 °F 93% 30.18 in 0.2 mi Calm Calm - N/A Fog Fog
5:48 AM 44.6 °F - 42.8 °F 93% 30.19 in 1.5 mi Calm Calm - N/A   Mostly Cloudy
5:53 AM 44.1 °F 41.5 °F 42.1 °F 93% 30.20 in 4.0 mi NE 4.6 mph - N/A   Scattered Clouds
6:53 AM 48.9 °F - 41.0 °F 74% 30.19 in 10.0 mi NE 9.2 mph - N/A   Clear
7:53 AM 50.0 °F - 41.0 °F 71% 30.20 in 10.0 mi North 4.6 mph - N/A   Clear
8:53 AM 55.0 °F - 46.0 °F 72% 30.19 in 10.0 mi Calm Calm - N/A   Clear
9:53 AM 57.9 °F - 44.1 °F 60% 30.20 in 10.0 mi Calm Calm - N/A   Clear
10:53 AM 61.0 °F - 39.0 °F 44% 30.18 in 10.0 mi NNE 9.2 mph - N/A   Clear
11:53 AM 63.0 °F - 39.0 °F 41% 30.15 in 10.0 mi NNE 11.5 mph 18.4 mph N/A   Clear
12:53 PM 64.9 °F - 39.9 °F 40% 30.13 in 10.0 mi NNE 10.4 mph 17.3 mph N/A   Clear
1:53 PM 64.9 °F - 39.9 °F 40% 30.12 in 10.0 mi NE 6.9 mph - N/A   Clear
3:53 PM 64.9 °F - 37.9 °F 37% 30.11 in 10.0 mi NE 8.1 mph - N/A   Clear
4:53 PM 61.0 °F - 37.9 °F 42% 30.11 in 10.0 mi NE 5.8 mph - N/A   Clear
5:53 PM 61.0 °F - 36.0 °F 39% 30.11 in 10.0 mi NE 6.9 mph - N/A   Clear
6:53 PM 60.1 °F - 35.1 °F 39% 30.12 in 10.0 mi NE 8.1 mph - N/A   Clear
7:53 PM 57.9 °F - 34.0 °F 41% 30.11 in 10.0 mi Calm Calm - N/A   Unknown
9:53 PM 55.0 °F - 39.0 °F 55% 30.13 in 10.0 mi NE 5.8 mph - N/A   Clear
10:53 PM 54.0 °F - 39.0 °F 57% 30.14 in 10.0 mi East 4.6 mph - N/A   Clear
11:53 PM 53.1 °F - 39.0 °F 59% 30.12 in 10.0 mi East 5.8 mph - N/A   Clear